FW6886 Weather Reports


time (UTC)temp
F
wind
direction
speed
knots
gust
knots
rain 1hr
in
rain 24hr
in
rain mn
in
humidity
%
barometer
mb
20260508000024 55 314 1.7 8.7 0.00 0.00 0.00 28 1009.8
20260507234538 55 327 2.6 7.8 0.00 0.00 0.00 26 1009.9
20260507233027 55 245 0.9 9.6 0.00 0.00 0.00 27 1009.9
20260507231522 55 24 1.7 10.4 0.00 0.00 0.00 27 1010.0
20260507230020 56 268 4.3 9.6 0.00 0.00 0.00 26 1010.1
20260507224520 57 329 1.7 7.8 0.00 0.00 0.00 27 1010.1
20260507223019 58 342 6.1 12.2 0.00 0.00 0.00 26 1010.2
20260507221528 57 315 0.9 10.4 0.00 0.00 0.00 27 1010.2
20260507220017 57 294 2.6 11.3 0.00 0.00 0.00 27 1010.2
20260507214516 58 324 3.5 9.6 0.00 0.00 0.00 26 1010.2
20260507213023 58 340 4.3 11.3 0.00 0.00 0.00 26 1010.3
20260507211516 58 355 7.0 15.6 0.00 0.00 0.00 25 1010.3
20260507210016 58 321 4.3 10.4 0.00 0.00 0.00 27 1010.5
20260507204511 58 355 5.2 13.0 0.00 0.00 0.00 26 1010.5
20260507203009 58 340 6.1 13.9 0.00 0.00 0.00 27 1010.8
20260507201507 58 321 2.6 8.7 0.00 0.00 0.00 29 1011.0
20260507200004 57 348 4.3 13.9 0.00 0.00 0.00 28 1011.0
20260507194507 57 10 3.5 9.6 0.00 0.00 0.00 29 1011.1
20260507193003 57 277 3.5 8.7 0.00 0.00 0.00 30 1011.2
20260507191604 57 341 3.5 11.3 0.00 0.00 0.00 28 1011.3
20260507190107 56 251 0.9 7.8 0.00 0.00 0.00 29 1011.4
20260507184556 56 311 5.2 11.3 0.00 0.00 0.00 32 1011.4
20260507183112 56 17 4.3 13.9 0.00 0.00 0.00 27 1011.6
20260507181557 56 315 5.2 12.2 0.00 0.00 0.00 30 1011.6
20260507180052 55 347 7.8 15.6 0.00 0.00 0.00 31 1011.7
20260507174559 56 67 1.7 9.6 0.00 0.00 0.00 32 1011.9
20260507173049 55 273 6.1 14.8 0.00 0.00 0.00 31 1012.1
20260507171543 55 11 4.3 9.6 0.00 0.00 0.00 28 1012.3
20260507170043 54 5 3.5 12.2 0.00 0.00 0.00 30 1012.3
20260507164548 54 350 0.9 7.8 0.00 0.00 0.00 32 1012.4
20260507163033 53 293 2.6 8.7 0.00 0.00 0.00 32 1012.5
20260507161539 52 36 3.5 10.4 0.00 0.00 0.00 34 1012.7
20260507160028 51 11 3.5 10.4 0.00 0.00 0.00 36 1012.9
20260507154524 50 312 3.5 10.4 0.00 0.00 0.00 37 1012.9
20260507153022 48 26 1.7 7.0 0.00 0.00 0.00 40 1013.0
20260507151516 47 17 2.6 5.2 0.00 0.00 0.00 48 1013.0
20260507150014 46 328 0.9 7.8 0.00 0.00 0.00 50 1013.0
20260507144507 45 355 1.7 7.0 0.00 0.00 0.00 52 1013.1
20260507143011 44 350 2.6 7.0 0.00 0.00 0.00 53 1013.3
20260507141605 43 355 0.9 7.8 0.00 0.00 0.00 54 1013.5
20260507140057 42 339 1.7 7.0 0.00 0.00 0.00 57 1013.5
20260507134554 41 342 4.3 7.8 0.00 0.00 0.00 60 1013.6
20260507133052 40 360 1.7 7.0 0.00 0.00 0.00 64 1013.6
20260507131548 39 340 1.7 4.3 0.00 0.00 0.00 65 1013.6
20260507130048 38 333 1.7 4.3 0.00 0.00 0.00 66 1013.7
20260507124556 37 355 0.0 4.3 0.00 0.00 0.00 68 1013.8
20260507123045 36 323 0.0 4.3 0.00 0.00 0.00 69 1013.9
20260507121544 34 248 0.9 3.5 0.00 0.00 0.00 71 1013.8
20260507120044 33 228 0.0 1.7 0.00 0.00 0.00 73 1013.8
20260507114602 32 228 0.0 1.7 0.00 0.00 0.00 74 1013.6
20260507113101 32 224 0.0 0.9 0.00 0.00 0.00 74 1013.6
20260507111545 32 224 0.0 0.9 0.00 0.00 0.00 74 1013.4
20260507110040 32 224 0.0 0.0 0.00 0.00 0.00 73 1013.5
20260507104541 32 224 0.0 0.0 0.00 0.00 0.00 72 1013.4
20260507103033 33 224 0.0 1.7 0.00 0.00 0.00 71 1013.3
20260507101531 34 223 0.0 0.0 0.00 0.00 0.00 70 1013.4
20260507100028 34 223 0.9 1.7 0.00 0.00 0.00 68 1013.5
20260507094527 34 223 0.9 3.5 0.00 0.00 0.00 68 1013.5
20260507093030 35 223 0.9 2.6 0.00 0.00 0.00 68 1013.6
20260507091524 35 223 0.9 2.6 0.00 0.00 0.00 67 1013.6
20260507090022 35 223 0.9 2.6 0.00 0.00 0.00 67 1013.7
20260507084519 36 223 0.9 2.6 0.00 0.00 0.00 66 1013.7
20260507083020 36 223 0.9 3.5 0.00 0.00 0.00 66 1013.9
20260507081532 36 229 0.9 3.5 0.00 0.00 0.00 67 1013.9
20260507080017 36 229 1.7 2.6 0.00 0.00 0.00 66 1013.8
20260507074513 36 230 0.9 2.6 0.00 0.00 0.00 66 1013.9
20260507073013 37 230 0.9 2.6 0.00 0.00 0.00 64 1014.0
20260507071508 37 230 0.9 2.6 0.00 0.00 0.00 63 1014.1
20260507070012 38 230 0.9 1.7 0.00 0.00 0.00 63 1014.3
20260507064502 38 230 0.9 1.7 0.00 0.00 0.00 63 1014.5
20260507063001 38 230 0.0 1.7 0.00 0.00 0.00 63 1014.6
20260507061600 38 230 0.0 2.6 0.00 0.00 0.00 63 1014.7
20260507054558 38 230 0.9 2.6 0.00 0.00 0.00 62 1014.7
20260507053055 38 230 0.9 2.6 0.00 0.00 0.00 61 1014.7
20260507051554 38 230 0.9 2.6 0.00 0.00 0.00 60 1014.7
20260507050051 39 228 0.9 3.5 0.00 0.00 0.00 59 1014.8
20260507044605 39 228 1.7 3.5 0.00 0.00 0.00 60 1014.9
20260507043102 39 228 1.7 3.5 0.00 0.00 0.00 60 1014.9
20260507041554 38 227 0.0 3.5 0.00 0.00 0.00 60 1015.0
20260507040048 38 225 1.7 3.5 0.00 0.00 0.00 61 1015.2
20260507034551 38 221 0.9 2.6 0.00 0.00 0.00 61 1015.3
20260507033047 37 219 1.7 3.5 0.00 0.00 0.00 62 1015.3
20260507031548 37 215 0.9 2.6 0.00 0.00 0.00 63 1015.3
20260507030046 37 215 0.9 2.6 0.00 0.00 0.00 63 1015.4
20260507024551 38 215 0.0 1.7 0.00 0.00 0.00 63 1015.4
20260507023057 38 215 0.0 1.7 0.00 0.00 0.00 61 1015.4
20260507021545 39 215 0.0 1.7 0.00 0.00 0.00 59 1015.5
20260507020050 40 215 0.0 0.0 0.00 0.00 0.00 57 1015.5
20260507014543 41 215 0.0 0.0 0.00 0.00 0.00 55 1015.4
20260507013042 42 215 0.9 2.6 0.00 0.00 0.00 54 1015.6
20260507011546 42 265 0.0 4.3 0.00 0.00 0.00 53 1015.6
20260507010041 43 225 0.0 2.6 0.00 0.00 0.00 53 1015.5
20260507004541 43 277 0.0 5.2 0.00 0.00 0.00 54 1015.5
20260507003040 43 279 1.7 7.8 0.00 0.00 0.00 51 1015.4
20260507001605 43 339 1.7 7.0 0.00 0.00 0.00 51 1015.5